FENGYUN 1C DEB, 31378

Orbit data source: Space-Track

FENGYUN 1C DEB, 31378 is space debris in SSO originally from a launch on Mon, 10 May 1999 UTC launched from the Taiyaun Space Center, China (TSC). Fengyun 1C debris stems from the Chinese weather satellite Fengyun-1C, which was intentionally destroyed by a Chinese anti-satellite missile in 2007. This event dramatically increased the amount of space debris, with thousands of trackable fragments posing hazards to satellites and human spaceflight. The Fengyun 1C debris cloud has become a focal point in discussions about space sustainability and the need for international regulations to prevent the creation of new debris.

Loading next visibility...
Identifier
31378, 1999-025BSJ
Orbit
SSO
Country
Flag of CNCN / PRC
Related business
Manufacturer
Unknown
Mission
Spacecraft
Bus & Motor
Unknown
Mass
Unknown
Launch date (UTC)
1999-05-10 (27 years ago)
Launch vehicle
Unknown
Launch site
Taiyaun Space Center, China (TSC)
Object type
Payload
Rocket body
Debris
Shape & HBR
Unknown shape, 0.1 m
Radar Cross Section
Small (<0.1 m²)

Expand to show TLE details & history
Last TLE update: 5 hours ago

TLE from 5 hours ago
0 FENGYUN 1C DEB
1 31378U 99025BSJ 26255.26502340  .00000422  00000-0  41153-3 0  9994
2 31378 100.7452 186.3039 0166710 229.5510 129.0999 13.80528817979971
Epoch: 2026-09-12T06:21Z
TLE epoch observation values (Epoch: 2026-09-12T06:21:38.021Z)
Latitude
-0.00005°
Longitude
99.61898°
Altitude
1,043.199 km
Speed
7.291 km/s
True Right ascension
12h 25m 12s
True Declination
0° 00' 00"
Sunlit
Object was in daylight at epoch
Visualization orbit readout
Latitude
Unknown
Longitude
Unknown
Altitude
Unknown
Speed
Unknown
Apparent Right ascension
Unknown
Apparent Declination
Unknown
Sunlit
N/A
Visualization observer readout
Local Sidereal Time
03:49:01
Azimuth
Unknown
Elevation
Unknown
Doppler factor
Unknown
Orbital elements
Apogee altitude
1,081.651 km
Perigee altitude
837.006 km
Semi-major axis
7,337.466 km
Eccentricity
0.01667
Inclination
100.7452°
RAAN
186.3039°
Arg. of periapsis
229.551°
True anomaly
130.56303°
Mean anomaly
129.0999°
Eccentric anomaly
129.83339°
Mean motion
3.45322 °/min
Orbital period
104.25 mins
BSTAR
0.00041153
Loading maneuver chart data...
Computing Atmospheric mass density...
Loading historical data...
Loading historical data...
Loading historical data...
Loading historical data...
Loading historical data...
Loading historical data...
Loading historical data...

Documentation

Showing up to 5 results
|